Theta_e
334 336 338 340 342 342 343 343 343 342 341 341 341 341 341 342 341 338 338 339 338 334 330 331 334 336 336 336 335 335 334 333 332 332 331 331 331 331 330 329 327 326 325 323 320 319 319 319 318 316 313 311 311 308 307 305 303 305 309 311 312 312 312 312 312 313 313 310 308 306 304 304 304 303 303 303 302 301 300 301 300 299 301 302 302
332 335 338 340 342 342 343 344 343 343 342 341 341 341 341 341 340 339 338 338 338 335 330 331 334 336 337 336 336 335 334 333 331 331 331 331 331 331 330 328 327 326 325 322 319 317 316 316 315 312 309 308 308 307 307 305 303 305 307 309 311 311 310 308 310 313 312 307 306 305 304 304 305 303 302 302 301 299 300 301 301 301 301 301 301
332 336 338 340 341 342 342 344 344 343 342 340 340 340 341 341 340 340 339 338 338 336 331 330 334 337 337 336 335 335 334 332 330 330 330 331 331 331 329 328 326 327 326 324 320 317 314 313 311 308 305 306 305 305 305 303 303 307 308 306 308 309 306 305 310 313 309 306 304 305 304 303 304 304 302 300 299 298 300 302 302 302 302 301 301
334 337 338 340 341 341 342 343 344 343 342 341 341 340 340 341 340 340 340 338 338 336 331 329 333 336 337 336 335 334 333 331 329 329 330 330 331 330 328 327 326 327 327 325 322 317 312 310 309 305 303 303 303 302 302 300 301 305 305 302 302 303 301 302 306 308 307 306 304 304 305 303 302 303 301 300 300 300 301 302 302 302 302 302 302
335 337 338 340 341 341 341 342 343 343 342 342 341 340 340 340 340 340 339 339 338 337 332 329 332 336 337 336 335 334 333 331 329 329 330 330 330 329 328 327 326 327 326 326 323 318 312 308 306 303 301 302 302 300 300 300 300 300 300 300 300 299 298 299 301 302 305 307 305 304 305 303 302 301 300 300 302 302 303 303 302 302 302 302 302
335 336 338 339 341 341 341 341 342 343 342 342 341 340 340 340 340 340 339 338 338 337 332 329 331 336 337 336 336 334 332 331 331 330 330 330 330 328 327 326 326 326 326 325 323 317 311 307 305 302 301 301 300 300 299 299 299 299 299 300 301 299 298 299 300 302 305 307 307 304 302 301 301 301 300 300 301 302 303 303 303 303 304 303 303
335 335 337 340 341 342 341 340 342 342 342 342 341 340 340 340 339 339 339 338 338 337 333 328 331 336 337 336 336 335 333 331 330 330 330 330 329 328 326 326 325 325 325 324 321 316 310 306 304 302 301 300 300 299 300 299 299 299 298 299 299 298 298 300 302 304 305 307 307 305 302 301 301 302 302 300 299 301 302 303 303 303 304 303 303
334 335 337 340 342 341 341 340 341 342 342 341 341 340 340 339 339 339 339 339 338 337 333 328 331 336 337 336 336 335 333 331 330 330 330 329 328 327 326 326 325 325 325 323 320 314 308 305 303 301 300 300 300 299 299 299 299 299 298 299 298 298 300 301 303 305 306 306 306 305 304 302 300 301 302 300 300 303 304 302 302 303 303 303 303
332 334 335 339 341 341 341 340 340 341 341 341 340 340 339 339 339 339 339 338 338 337 334 330 332 336 337 336 336 335 333 332 331 330 329 329 328 326 326 326 325 325 325 323 319 313 307 303 302 301 300 300 299 299 299 299 299 299 298 298 298 299 301 302 303 305 305 305 305 304 304 303 302 302 302 302 303 305 304 301 302 303 304 303 303
332 333 334 338 340 340 340 340 340 340 341 340 340 340 339 339 339 338 339 338 337 337 336 332 332 336 338 336 336 335 334 332 331 330 330 329 327 326 326 326 325 324 323 322 318 311 306 303 301 300 300 300 299 299 299 299 299 298 298 298 298 298 299 300 302 304 304 304 304 304 303 303 303 303 303 304 303 302 302 302 303 304 304 303 304
330 331 334 338 340 340 340 340 340 340 340 340 339 339 339 339 339 338 338 338 337 337 337 333 333 336 337 336 336 335 334 333 331 330 330 329 326 326 326 326 325 323 321 321 317 310 304 302 300 300 300 299 299 299 299 299 299 298 298 298 298 298 299 300 302 304 304 304 304 303 302 303 304 303 303 304 302 300 301 303 304 304 304 304 304
329 331 335 338 340 340 339 339 339 340 340 339 339 339 339 338 338 338 338 338 338 337 337 335 334 336 337 336 336 334 333 333 331 330 330 328 326 326 326 326 324 321 320 319 314 307 303 301 300 300 299 299 299 299 299 299 298 298 298 298 297 299 300 299 301 303 303 304 304 303 302 303 304 303 302 303 302 302 302 303 304 304 304 304 304
330 333 338 340 340 340 340 339 340 339 339 339 338 338 338 338 338 338 337 338 338 337 337 335 334 336 337 336 335 334 333 332 331 330 329 327 326 326 326 326 323 319 318 317 311 305 301 300 300 299 299 299 299 299 298 299 299 298 298 297 297 299 299 298 299 300 301 302 303 303 302 302 304 304 301 300 300 301 303 304 304 305 304 304 304
332 336 339 340 340 340 340 339 340 339 339 339 338 338 338 338 338 338 337 337 337 337 336 335 335 337 337 335 334 334 332 331 330 330 329 327 326 326 325 325 321 317 315 313 308 303 301 300 299 299 299 299 298 298 298 299 299 298 298 298 298 299 299 297 297 297 298 299 301 302 301 300 302 304 301 298 297 299 302 304 304 304 304 303 302
337 339 340 340 340 340 339 339 339 339 338 338 338 338 338 338 338 337 336 337 338 338 337 336 336 336 336 335 334 333 332 330 329 329 328 326 326 325 325 324 319 315 312 309 305 301 300 299 299 299 299 299 298 299 299 299 299 298 298 298 299 299 297 297 297 297 297 297 298 300 301 299 299 301 299 297 297 297 299 300 300 300 300 301 301
339 340 340 340 340 339 339 339 339 338 338 338 338 338 338 338 338 337 335 335 337 338 337 336 335 335 335 334 333 333 332 330 329 328 327 326 326 325 324 322 317 312 309 307 302 300 299 299 299 299 299 298 299 299 299 299 299 298 298 299 299 298 297 297 296 296 297 297 297 298 299 297 297 298 297 297 297 297 297 299 299 300 301 303 304
340 340 340 340 340 339 339 339 339 338 338 338 339 339 338 338 338 336 335 334 335 337 337 336 335 334 334 334 334 333 332 330 329 328 327 326 325 324 323 321 316 310 307 305 301 299 298 298 298 298 298 299 299 299 299 299 299 299 299 299 299 298 297 296 296 296 296 297 297 296 297 296 296 297 297 296 296 296 297 300 302 303 304 305 304
340 340 340 339 339 339 339 338 338 337 337 338 338 339 338 338 337 337 335 333 333 335 336 336 335 334 335 335 335 333 332 331 330 328 327 326 325 324 324 322 317 310 306 303 301 299 298 298 298 298 298 299 299 299 299 299 299 299 298 298 298 298 297 296 296 296 296 296 296 296 296 296 296 296 296 296 296 295 296 298 301 303 304 304 304
340 340 340 339 339 338 338 337 336 336 337 338 339 338 338 338 337 337 334 332 333 334 334 335 335 335 336 335 334 333 332 330 329 328 327 326 326 325 325 323 318 311 305 302 300 299 299 298 298 298 298 299 299 299 299 299 299 298 298 298 298 298 297 296 296 296 296 296 296 296 296 296 296 296 296 296 296 296 295 296 298 301 303 304 303
340 339 339 339 339 338 338 336 336 336 337 338 338 338 338 337 337 337 334 333 335 335 334 334 335 336 336 334 333 333 331 330 330 328 327 327 326 325 325 323 320 313 306 302 300 300 299 298 298 298 298 298 299 299 299 299 299 298 298 298 299 299 298 297 296 296 296 296 295 296 296 296 296 295 296 296 295 295 295 295 296 299 302 303 303
339 339 339 339 338 338 337 336 336 337 338 338 338 338 338 337 337 336 334 333 334 335 333 333 334 336 336 335 333 333 331 330 330 328 327 327 326 326 325 324 322 316 307 302 301 300 299 298 298 298 298 298 299 300 299 298 298 298 298 299 299 299 298 299 297 295 296 298 298 298 300 300 299 298 297 297 297 296 295 295 295 297 300 302 303
339 339 339 338 338 337 337 337 337 338 338 338 338 338 338 337 337 336 334 332 334 334 333 333 334 335 336 336 335 333 332 331 330 328 327 327 326 326 325 323 323 318 309 303 301 301 299 298 298 298 298 298 300 300 299 298 298 298 299 299 299 297 297 299 300 297 297 299 300 301 302 303 302 302 301 300 300 298 297 296 295 296 299 301 302
338 338 338 338 338 337 337 338 337 338 338 338 338 338 337 337 337 336 334 333 333 333 332 332 333 334 335 336 335 335 333 331 330 329 327 326 326 326 325 324 323 318 310 304 301 300 299 299 299 298 298 299 300 299 298 298 298 299 299 299 298 296 295 298 301 300 299 299 300 301 302 302 302 302 302 302 301 300 299 298 297 298 299 300 300
338 339 338 338 338 338 338 337 337 337 338 338 338 338 337 337 337 336 335 333 332 331 331 331 333 334 335 335 334 334 334 332 330 328 327 327 327 326 325 324 321 315 308 303 300 300 300 300 299 299 298 299 299 298 298 298 298 299 299 298 297 296 295 296 299 301 301 300 301 301 301 301 301 301 302 302 301 300 300 299 298 298 299 300 300
339 339 338 338 338 338 338 338 338 338 338 338 338 337 337 337 336 335 334 333 333 332 331 331 333 334 334 335 334 334 333 332 330 328 327 327 326 325 325 323 318 312 306 302 303 305 304 301 299 299 299 299 299 298 298 298 298 298 298 297 297 296 295 296 298 301 301 301 301 301 299 298 299 300 302 302 301 299 298 297 296 296 298 299 300
339 339 338 338 338 338 338 338 338 338 338 337 337 337 337 336 335 334 334 333 333 333 333 332 333 333 332 333 334 333 333 332 330 328 327 326 325 324 324 321 316 310 306 304 306 307 305 301 300 300 300 300 300 300 299 299 299 298 297 297 297 295 294 295 298 300 301 301 301 300 299 298 299 300 301 300 298 296 295 295 296 297 299 301 302
338 338 338 338 337 337 338 338 338 338 338 337 337 337 337 336 335 334 334 334 333 333 333 333 333 332 332 332 333 333 333 332 330 329 327 326 324 324 322 320 315 309 307 307 307 305 303 301 302 302 302 302 302 301 301 300 299 298 298 298 297 295 294 294 296 298 300 302 302 301 301 301 301 301 300 299 296 295 295 295 297 299 301 302 303
337 337 337 337 336 336 336 337 337 337 337 337 337 337 337 336 336 336 335 335 334 334 334 334 333 333 333 333 333 333 333 332 331 329 328 327 325 324 322 320 315 311 310 310 307 303 303 303 303 303 303 303 303 302 302 300 299 298 298 298 298 296 295 295 295 298 301 302 303 303 303 302 302 301 300 298 297 296 296 296 298 299 300 301 302
336 336 336 336 336 336 335 335 335 335 336 336 335 335 335 335 335 336 336 335 334 333 334 334 334 334 333 333 332 332 332 332 331 330 329 328 326 325 323 321 317 314 314 311 306 303 304 304 304 304 304 303 303 303 303 301 300 299 298 299 299 298 298 297 298 299 301 302 303 303 302 302 301 300 299 297 297 297 297 298 299 299 300 300 301
334 334 335 336 336 336 336 336 336 336 336 335 335 335 335 335 335 335 335 335 334 334 333 333 333 333 333 332 331 331 331 332 331 330 329 327 325 324 323 320 317 317 315 310 305 305 305 305 304 304 304 304 304 304 303 303 301 299 299 299 300 301 301 301 301 301 300 301 301 302 301 301 300 300 299 298 298 298 298 298 299 300 300 300 301
333 333 334 335 335 335 335 336 336 336 336 336 336 336 335 335 336 335 335 334 334 334 334 333 333 333 333 332 331 330 330 330 330 330 328 326 325 325 322 319 317 318 315 310 306 306 306 306 305 305 305 305 305 304 304 304 302 301 301 301 301 301 302 302 303 302 300 299 300 301 302 301 301 300 300 300 300 300 300 299 299 299 299 299 301
332 332 332 332 333 333 334 334 335 335 335 335 335 335 335 335 335 335 334 333 333 333 333 332 332 331 330 329 329 328 328 329 329 329 328 326 326 325 322 319 319 318 314 309 307 307 307 306 306 306 306 306 306 305 305 305 304 303 303 303 302 301 301 301 301 300 300 300 300 300 301 302 302 302 302 301 301 301 301 300 300 299 299 299 300
330 330 330 330 330 331 332 332 332 333 333 333 334 334 334 334 334 334 334 332 330 330 330 330 330 330 329 327 327 326 326 327 327 327 327 326 325 325 322 320 319 317 313 309 307 308 308 307 307 307 307 307 307 306 306 306 306 305 304 304 303 301 300 300 300 300 301 301 301 301 301 302 302 302 302 302 301 301 301 300 299 299 299 299 300
327 327 327 328 328 328 329 329 330 330 330 331 331 332 332 332 332 332 333 331 328 327 327 328 328 328 328 327 326 326 325 326 326 326 326 326 325 324 321 319 318 317 314 311 309 308 308 308 308 308 308 308 307 307 307 307 307 307 306 306 305 303 302 301 301 301 301 301 302 302 302 302 302 303 303 302 302 301 301 300 300 299 298 299 300
325 325 325 326 327 327 327 328 328 329 329 329 329 329 329 329 329 330 331 330 326 325 326 327 327 326 326 326 326 325 325 325 325 325 325 325 324 323 321 319 318 316 314 313 311 309 309 309 309 308 308 308 308 308 307 307 308 308 307 307 306 305 304 303 302 302 302 302 302 303 303 302 303 303 303 303 303 302 301 301 301 300 298 298 299
324 324 324 325 325 326 326 327 327 328 328 328 328 328 327 328 328 328 329 328 325 325 326 327 327 326 325 325 325 324 323 322 322 323 323 323 323 322 320 319 318 317 316 315 314 312 311 311 310 309 308 308 309 309 308 308 308 309 308 308 307 306 306 305 303 303 303 303 304 303 303 303 303 303 303 304 303 303 302 302 302 301 298 297 298
324 323 323 324 324 325 325 325 326 326 326 326 327 327 327 327 328 327 326 325 324 324 324 325 325 325 325 324 324 323 322 321 321 321 321 321 321 321 320 319 318 318 317 316 315 314 313 312 311 310 310 309 310 309 309 308 309 309 309 308 308 307 306 305 305 304 303 302 303 303 303 303 302 302 303 303 303 303 303 302 302 301 299 297 296
324 324 323 323 323 323 324 324 325 325 325 325 325 325 326 326 326 325 324 323 323 323 323 323 324 324 324 324 324 322 321 321 320 320 320 320 319 319 319 318 318 318 318 317 317 317 316 314 313 312 312 312 312 310 309 308 309 309 309 308 308 307 306 305 304 304 303 301 301 302 303 303 302 301 301 301 302 302 302 302 302 301 300 298 295
324 324 324 323 322 322 322 322 323 323 323 323 323 323 324 324 324 323 322 322 322 322 322 322 322 322 323 323 323 322 321 320 320 320 321 320 320 319 318 318 318 318 318 318 318 317 317 315 314 314 314 314 313 312 310 309 309 309 309 308 307 307 305 304 303 303 302 301 301 302 302 302 301 301 300 300 301 301 302 302 302 301 300 298 297
323 324 324 323 323 322 321 321 320 321 321 321 321 322 322 322 322 321 321 321 321 321 321 321 322 322 322 322 322 322 321 320 319 320 320 320 320 319 319 318 318 318 318 318 318 317 317 316 315 315 315 314 314 312 311 309 309 309 309 308 307 306 305 303 301 301 301 301 301 301 302 301 301 300 300 299 299 300 301 301 301 300 298 296 296
319 321 322 323 323 322 321 320 319 319 319 320 320 320 320 320 320 320 320 320 320 320 321 321 322 323 323 322 322 322 321 321 321 321 321 320 320 319 319 319 319 319 318 318 317 317 316 315 315 314 314 314 313 313 311 310 309 309 308 307 306 305 303 301 300 300 300 299 299 299 300 300 300 299 299 299 298 298 299 299 298 297 296 295 295
318 319 320 321 322 322 321 320 319 319 319 319 319 319 319 319 318 318 319 319 319 319 320 321 321 322 322 321 321 321 320 320 320 320 320 320 319 319 318 318 319 319 318 317 317 316 316 315 314 314 313 313 312 311 310 309 308 308 307 305 303 302 300 300 299 299 298 298 297 297 297 297 297 297 298 298 298 298 298 297 296 295 295 296 295
319 319 318 319 320 321 321 320 320 319 319 319 320 320 319 319 318 318 318 318 318 318 319 319 320 320 320 319 319 319 318 318 318 318 318 318 318 317 317 317 317 318 317 317 316 316 315 315 314 313 312 311 310 309 309 308 306 305 304 303 301 299 299 299 299 298 298 297 297 296 295 295 295 295 295 296 297 297 297 296 296 295 295 296 297
318 319 318 317 318 319 320 320 320 320 319 319 319 319 319 319 319 319 319 319 318 317 318 318 318 318 318 318 318 318 318 318 319 318 318 318 317 316 316 316 316 316 315 315 315 315 315 315 314 312 310 309 308 307 306 305 304 302 301 301 300 300 299 300 299 299 299 298 298 297 296 294 294 294 294 294 295 296 296 296 295 295 295 296 298
317 318 318 318 318 318 319 319 320 320 319 319 319 318 318 319 319 319 319 319 318 318 318 318 318 318 318 318 318 318 318 318 318 317 318 317 317 316 316 315 315 315 315 315 315 315 314 314 313 312 310 309 307 305 303 302 302 301 301 301 301 301 301 301 301 300 300 300 299 298 297 295 293 293 293 293 293 294 294 294 294 294 294 295 297
317 317 318 318 318 318 318 318 318 319 318 319 319 319 318 318 318 318 318 318 318 318 318 317 317 317 317 317 317 317 316 316 316 316 316 316 316 316 316 316 316 316 315 315 315 314 314 313 312 312 311 309 307 305 303 302 301 302 302 302 302 302 303 303 302 302 302 302 301 300 298 296 294 293 293 293 293 293 293 293 294 293 293 293 295
315 316 317 317 317 316 317 317 318 317 317 318 318 318 317 317 317 317 317 317 317 317 317 316 316 316 316 316 316 316 316 316 316 315 315 315 315 315 315 315 315 315 315 315 315 314 313 313 312 312 311 309 306 304 303 302 302 302 302 302 302 303 304 304 304 303 303 303 302 302 300 298 295 293 293 293 293 293 293 293 293 293 293 293 294
314 314 315 316 316 315 315 316 316 316 316 316 316 316 316 316 315 315 315 316 316 315 315 315 316 316 316 316 316 316 316 315 315 314 314 314 314 313 313 313 314 314 314 314 314 314 314 313 313 312 311 309 307 305 304 304 303 303 303 303 304 305 305 304 304 303 303 303 302 302 301 300 297 294 293 293 293 293 293 293 292 292 292 292 294
313 314 314 315 316 315 315 315 315 314 314 314 314 314 314 314 314 314 314 314 315 314 314 314 314 315 315 315 315 315 315 315 315 314 314 313 313 313 313 313 313 313 314 314 314 314 313 313 313 312 311 310 308 307 306 305 305 304 304 305 305 305 304 303 303 302 302 301 301 301 301 301 299 297 295 294 293 293 292 292 292 292 292 292 293
312 313 313 314 314 314 314 315 314 314 314 314 313 313 313 313 313 313 313 313 313 314 313 313 313 313 313 313 313 313 313 313 313 313 313 313 313 313 313 313 313 313 313 313 313 313 313 313 313 312 312 311 310 308 307 306 306 306 306 306 306 305 303 303 303 302 302 301 300 299 299 300 299 299 298 296 294 293 292 292 292 292 292 291 292
310 311 312 312 313 313 313 313 313 313 313 313 313 313 313 313 313 313 313 313 312 312 312 312 312 312 312 312 311 311 311 311 311 312 312 312 312 312 312 312 312 312 312 313 313 313 312 312 312 312 312 311 311 310 309 308 307 308 307 306 305 304 304 304 304 303 302 300 299 298 298 298 298 298 298 297 295 293 292 292 292 291 292 292 292
Wind_Speed
37 37 38 37 32 30 29 28 29 31 31 29 27 25 22 21 24 27 27 25 25 26 27 25 23 22 21 22 22 22 22 22 22 21 21 21 21 20 18 18 18 17 16 17 17 18 19 19 20 20 19 18 18 18 17 17 18 18 16 14 13 13 13 12 10 9 11 14 14 13 13 11 10 9 7 8 11 13 11 10 13 14 8 5 10
36 36 33 30 31 31 29 28 27 28 32 35 30 24 22 22 23 27 29 28 26 26 28 27 25 23 22 23 23 21 22 23 23 22 22 21 20 20 19 19 19 18 17 17 17 18 18 19 19 19 18 18 18 16 16 17 17 16 15 13 12 11 13 13 10 10 14 16 14 13 12 9 6 8 9 9 11 11 8 8 9 8 7 6 5
35 35 32 29 30 30 30 29 26 29 36 36 30 25 23 23 24 26 29 29 27 27 28 29 26 25 25 24 24 22 22 24 25 23 22 22 20 20 20 20 20 19 18 17 17 18 18 18 19 18 18 18 18 17 16 17 15 12 13 13 12 12 13 13 12 12 13 14 12 12 11 9 6 8 10 11 12 11 6 6 7 6 7 8 5
35 35 30 27 28 28 30 30 28 32 36 33 31 27 23 23 24 25 27 29 29 28 29 30 29 27 28 26 25 24 24 25 26 25 23 22 21 20 20 20 20 20 19 18 18 18 18 18 18 17 17 18 18 18 17 17 16 14 14 13 13 13 14 14 14 13 12 12 11 9 9 9 7 7 9 9 11 10 7 6 7 5 6 8 6
35 35 30 25 26 28 31 31 31 32 32 31 34 30 23 24 25 24 26 28 30 30 30 32 32 29 30 28 25 24 25 25 25 25 24 23 22 21 21 21 20 20 20 20 20 19 19 19 18 17 18 19 18 18 18 17 16 15 14 13 13 14 14 14 14 13 11 10 9 9 10 9 7 7 8 7 7 8 8 8 8 6 6 7 6
36 36 31 25 26 28 32 33 31 30 31 33 36 32 25 25 26 26 26 27 31 33 32 34 34 31 30 29 26 25 26 25 25 24 24 23 22 22 22 21 21 20 20 21 20 20 20 20 19 19 19 19 19 19 18 17 16 15 14 14 14 15 14 12 11 12 11 9 9 10 10 9 7 7 8 7 6 6 6 7 8 7 6 7 7
37 35 30 25 25 27 31 34 31 30 31 34 36 32 27 27 27 26 26 26 29 34 35 35 35 32 31 29 28 27 26 25 25 24 24 23 22 23 23 22 21 21 21 22 22 22 21 21 21 21 21 21 20 19 18 17 16 16 16 16 16 15 13 11 11 12 11 10 10 10 9 9 7 6 7 8 7 6 6 6 6 6 7 8 8
38 36 31 26 26 27 29 33 31 30 30 31 34 34 30 31 29 26 26 26 26 31 35 37 35 33 32 31 30 30 28 27 27 26 25 24 24 24 23 21 21 21 21 22 23 23 23 23 22 22 22 22 21 20 19 18 18 18 18 18 17 14 12 11 12 11 11 11 10 9 8 8 7 7 8 8 5 5 6 6 6 7 8 8 8
40 38 33 27 26 26 28 31 31 31 30 31 35 36 34 34 32 28 28 27 26 29 34 37 36 34 33 33 32 31 31 29 30 29 27 26 26 25 23 21 21 21 21 22 24 24 24 24 24 23 24 23 22 21 20 20 19 19 19 17 15 14 13 13 12 12 11 11 10 9 9 8 7 8 8 6 4 6 8 9 8 7 7 8 8
41 37 33 29 26 25 28 32 32 31 31 34 37 37 35 35 32 29 28 28 27 28 32 37 37 35 34 34 33 32 32 31 32 31 28 26 26 24 22 21 21 21 22 23 24 24 25 25 24 24 24 23 22 21 21 21 20 20 18 16 15 15 15 14 13 12 12 11 11 10 9 8 8 9 8 7 7 8 8 8 7 7 7 8 7
40 37 33 29 25 27 31 34 33 31 31 33 35 36 35 33 31 28 27 29 30 30 33 37 38 36 35 34 34 33 33 33 32 30 28 26 25 23 22 21 21 22 23 24 25 25 25 25 24 24 24 24 23 23 22 21 21 20 18 17 17 16 15 15 14 13 12 11 10 10 9 9 9 9 8 8 8 8 7 6 7 7 7 8 7
40 37 34 28 26 31 34 34 33 31 30 32 35 36 34 32 29 26 26 31 33 32 34 38 38 37 36 35 35 34 33 33 32 29 28 27 26 24 22 21 22 22 24 24 25 25 25 25 25 25 25 25 24 23 23 22 21 20 19 19 18 17 16 16 16 14 13 11 10 10 9 9 9 9 8 8 7 7 7 7 8 8 8 9 9
39 35 31 28 28 32 34 33 33 32 32 33 35 35 34 32 29 26 25 30 33 32 34 38 39 38 37 35 35 34 32 31 30 29 29 28 27 24 22 22 22 23 24 25 25 25 26 26 27 26 26 25 24 24 23 22 21 20 20 19 18 16 16 18 18 17 15 13 10 10 10 9 8 9 10 9 8 7 7 7 7 8 9 9 10
37 30 27 28 30 31 32 33 33 32 33 34 35 36 35 31 29 27 28 32 34 34 35 38 38 38 37 36 35 33 32 30 29 30 30 29 27 24 22 22 22 23 25 25 25 26 26 27 27 27 26 25 24 25 24 23 21 21 20 19 18 16 16 18 19 18 17 15 12 10 11 11 9 9 11 11 9 8 7 7 8 9 11 12 12
31 26 26 29 31 32 33 34 33 32 34 36 36 37 34 30 28 29 30 34 37 37 37 38 38 37 36 35 35 34 32 28 28 31 31 28 26 23 22 22 22 24 25 25 25 26 27 27 27 27 26 25 26 26 25 23 22 22 20 19 17 16 16 18 19 18 17 16 14 12 12 12 11 12 12 10 9 10 9 10 11 11 12 13 12
27 26 27 28 31 33 33 33 33 34 35 37 38 37 33 30 29 27 27 31 36 39 39 39 38 37 36 35 36 36 32 26 26 31 31 29 26 23 22 22 22 24 26 26 26 27 27 27 27 27 27 27 27 25 24 24 23 21 20 19 17 17 17 18 19 18 17 17 16 15 15 14 12 12 12 10 10 11 10 10 11 11 12 12 12
28 27 28 29 30 33 33 32 33 35 36 36 38 36 33 32 32 30 28 29 34 39 41 39 37 37 38 38 38 36 31 25 26 31 32 30 26 24 23 23 23 25 27 27 27 28 28 28 28 28 28 28 27 25 25 25 23 21 20 19 18 18 18 19 19 18 17 18 17 17 15 14 13 12 12 11 12 12 10 9 10 10 11 12 11
29 28 28 30 33 34 34 34 34 35 35 34 36 37 35 34 36 35 33 33 35 39 41 40 40 40 39 38 36 34 30 27 28 32 33 30 27 25 24 23 24 26 28 28 28 28 29 29 29 28 29 29 27 26 26 25 23 22 21 20 19 19 19 19 19 19 19 18 18 17 16 15 14 13 13 13 13 13 12 11 10 10 12 13 12
30 28 27 30 33 34 35 35 34 33 34 34 36 37 35 36 38 37 35 37 38 38 38 40 42 41 39 36 34 34 32 29 30 33 33 30 28 26 24 24 25 26 28 29 29 29 30 30 29 29 30 29 27 27 27 26 24 23 22 20 20 20 19 20 20 20 20 19 18 18 17 16 15 14 15 14 14 14 14 13 13 12 13 14 12
29 27 27 30 32 32 33 34 33 32 34 35 36 35 35 38 40 37 35 37 37 36 37 40 40 39 39 37 35 36 34 32 31 33 32 30 28 27 25 25 25 26 28 30 31 31 31 30 29 30 30 29 26 26 26 25 24 23 22 21 20 19 19 20 21 20 20 19 19 17 16 17 17 17 17 16 16 16 15 15 15 15 15 14 13
27 27 28 30 31 30 30 31 31 31 32 33 34 34 36 37 36 33 33 35 34 30 33 38 38 37 39 40 39 38 36 33 33 33 32 31 29 27 26 26 25 25 28 31 31 31 31 31 30 31 30 28 26 26 26 24 24 23 22 21 20 19 19 19 20 20 19 18 18 17 15 15 16 17 17 17 17 17 16 16 16 16 17 16 14
26 26 27 28 28 29 29 30 30 30 31 32 32 33 34 34 32 31 31 34 34 31 33 38 38 36 38 40 41 42 40 35 33 33 32 32 31 27 26 26 25 25 30 32 31 31 31 30 30 30 29 27 26 25 25 23 23 23 22 21 21 21 20 18 17 18 19 18 17 16 14 14 14 15 15 15 15 16 17 17 17 17 18 18 16
23 23 24 24 25 26 29 31 32 31 32 33 32 32 33 33 34 34 31 31 35 39 40 42 40 37 39 40 41 44 43 38 35 34 34 33 30 27 26 26 24 25 29 31 31 30 29 28 28 28 27 25 25 24 23 22 22 22 21 21 20 20 20 18 15 15 17 18 17 16 16 15 14 14 14 14 14 14 15 17 17 17 18 19 18
20 21 22 22 23 24 27 29 30 31 32 33 33 32 32 34 37 39 34 33 37 41 41 42 41 40 40 39 38 42 44 41 37 35 35 34 31 28 26 24 23 25 27 29 30 29 27 27 27 25 24 24 23 22 21 21 21 20 19 19 19 19 20 20 17 15 16 17 17 18 18 17 16 15 15 14 13 14 15 17 18 18 19 19 19
18 19 20 22 22 24 26 27 27 26 27 31 33 33 32 33 37 39 36 35 39 41 40 41 42 41 42 41 40 40 42 42 39 37 36 34 31 28 26 25 26 27 28 29 28 26 24 25 24 22 22 22 20 20 20 21 20 19 18 19 19 19 22 21 18 16 18 18 18 18 19 18 17 16 15 16 18 19 20 20 20 19 19 20 19
16 17 19 21 22 23 24 25 25 24 25 28 31 33 33 34 37 38 37 38 42 43 41 40 40 40 42 43 42 39 39 40 41 39 37 35 31 28 28 27 28 29 28 27 26 23 21 22 20 20 21 21 20 20 22 21 20 19 20 20 20 20 23 24 21 19 18 18 18 18 17 16 15 15 17 20 23 24 23 21 20 18 17 17 17
14 16 17 19 21 23 23 23 22 23 25 27 29 33 36 37 38 39 41 43 44 44 41 40 40 41 41 40 39 39 39 40 42 42 39 37 33 31 30 29 30 30 29 27 25 23 22 22 21 21 21 20 20 21 21 20 21 22 22 22 22 22 24 25 24 22 19 18 17 16 15 15 14 15 17 21 22 22 21 19 18 16 15 15 15
13 15 17 19 21 21 22 23 23 24 27 29 31 34 37 39 40 42 43 43 43 43 42 42 41 41 41 39 37 38 40 41 43 44 42 39 36 34 32 32 32 31 29 28 27 26 25 24 23 23 23 22 22 22 22 22 23 24 24 23 23 24 25 25 25 23 21 19 17 15 14 15 16 17 18 18 18 18 17 17 17 17 16 15 16
8 10 13 16 18 18 19 22 23 24 26 29 31 34 35 36 38 40 41 40 40 40 40 38 38 40 42 40 39 40 42 42 41 42 42 40 37 34 32 33 32 31 30 31 31 29 28 26 26 27 26 25 25 24 22 23 24 25 25 24 23 23 24 25 26 25 24 21 19 18 17 17 17 17 16 16 16 15 15 16 16 16 16 15 16
4 5 9 13 16 15 16 18 20 21 23 25 28 32 33 34 36 38 38 38 39 40 40 39 36 37 40 40 37 36 39 39 37 39 41 39 33 30 29 29 28 29 30 31 31 30 29 29 29 29 28 27 27 26 24 24 25 25 26 26 25 24 23 24 24 25 26 26 23 20 19 17 16 15 14 14 14 14 15 16 16 16 16 16 17
3 6 10 13 15 14 14 16 18 20 22 25 28 31 33 35 37 37 38 38 38 40 42 41 37 35 37 39 35 30 31 34 35 36 38 35 31 30 29 26 24 24 27 29 31 31 32 31 30 30 29 27 26 27 26 24 24 25 24 25 26 27 26 26 26 26 27 27 24 21 19 17 16 15 14 14 14 13 14 15 15 16 17 17 17
5 6 9 12 14 15 15 17 18 20 23 27 30 32 34 37 38 37 38 40 40 40 40 39 37 34 34 35 32 26 26 30 30 31 34 34 31 31 31 27 23 22 25 29 32 33 33 34 32 30 27 25 25 25 24 22 21 22 23 24 27 30 30 30 29 27 26 25 24 23 22 19 17 16 15 14 14 14 14 14 14 14 15 16 17
8 8 8 9 10 12 14 14 15 19 24 27 30 32 34 37 39 38 38 39 40 39 36 34 34 32 29 27 24 20 20 22 24 29 34 34 30 31 31 28 24 22 26 32 35 35 35 35 33 29 26 25 23 23 24 22 20 19 21 23 27 30 32 31 30 27 25 25 24 24 24 22 20 19 18 16 16 16 15 15 15 15 15 16 17
9 10 10 10 9 11 13 12 11 13 17 22 27 30 32 36 39 39 39 38 38 36 34 33 33 31 27 23 20 16 15 19 23 28 32 31 29 30 32 29 25 25 28 32 35 36 37 36 33 30 27 26 26 26 27 25 22 20 21 23 24 26 28 30 30 29 28 27 26 25 24 24 23 21 20 19 18 17 17 17 16 15 16 16 17
5 7 9 10 10 11 12 12 11 12 13 16 19 23 28 34 37 37 37 38 36 33 32 33 32 29 26 22 18 15 16 19 23 27 29 29 29 30 31 30 30 30 31 33 35 36 37 37 35 32 28 28 30 31 30 28 25 23 23 23 23 23 24 27 29 30 30 28 27 26 26 26 24 23 21 20 20 19 19 18 17 17 17 16 16
2 3 4 7 9 11 12 12 12 13 14 15 16 19 24 30 33 33 34 34 32 29 29 31 30 27 24 22 19 18 18 19 22 25 27 29 31 32 33 33 34 35 35 36 37 37 36 35 35 33 31 32 35 34 32 31 28 26 24 23 22 22 22 23 26 29 30 29 27 28 29 28 26 24 23 22 22 22 20 19 18 20 20 19 17
5 3 1 1 3 5 8 10 11 11 13 14 16 19 23 26 27 29 30 29 29 28 28 30 30 29 26 24 23 22 21 22 24 26 28 30 32 34 36 36 37 37 38 39 39 39 37 35 35 34 35 37 37 34 33 31 27 24 24 24 23 22 22 22 23 25 28 30 30 30 30 29 28 26 24 24 23 22 21 22 23 24 23 22 21
9 6 6 6 4 3 2 4 7 9 11 14 17 19 22 23 25 26 26 25 26 27 28 29 31 32 30 29 28 26 24 25 27 29 30 31 32 35 36 37 37 38 38 38 38 37 36 36 36 36 36 36 35 34 33 30 25 23 24 24 24 23 23 24 25 25 28 30 31 30 29 29 29 29 27 27 27 24 23 25 28 27 23 21 23
12 9 8 8 7 5 4 3 3 6 9 13 16 18 19 20 21 22 23 23 23 24 26 28 29 29 28 29 29 29 28 29 30 32 33 33 34 35 36 36 36 36 36 36 35 33 33 34 35 35 34 32 30 31 32 29 26 25 25 24 24 24 25 27 29 29 30 31 30 29 28 28 29 29 29 29 29 28 27 28 30 29 26 22 21
13 11 9 8 8 7 6 4 2 4 6 9 13 15 15 15 17 19 20 20 20 21 23 24 24 23 22 23 26 27 28 28 28 30 31 33 34 35 36 36 37 36 36 35 33 32 31 32 32 32 31 29 29 30 31 29 28 27 26 25 25 25 27 29 30 31 31 31 30 29 29 29 29 29 30 30 30 29 29 31 33 33 30 26 22
11 11 9 7 8 8 7 7 5 2 2 4 7 9 10 10 12 14 14 16 18 19 20 21 21 21 21 21 22 23 24 26 27 28 29 30 32 33 34 35 36 35 34 33 31 30 29 28 30 30 30 28 28 29 30 30 29 28 27 27 28 28 29 30 31 30 30 31 31 30 30 31 31 31 31 31 30 29 29 30 32 32 30 27 25
11 11 10 8 8 8 9 10 10 7 6 6 4 1 2 4 7 8 9 12 16 17 17 17 17 18 18 18 18 18 19 21 21 22 23 25 26 29 31 32 33 32 30 30 29 28 26 26 27 28 28 27 27 28 30 30 29 28 28 29 30 31 30 30 31 31 30 30 30 29 29 30 31 31 30 30 31 31 31 31 32 30 27 24 24
15 14 11 9 8 8 8 10 12 12 12 12 11 9 7 5 4 5 6 6 8 10 12 13 15 15 15 16 17 17 17 17 17 18 19 20 20 22 25 27 28 28 28 27 27 26 25 25 25 25 25 26 26 27 29 29 28 28 29 30 31 31 30 29 30 31 29 28 28 28 27 27 28 29 29 29 30 31 32 31 30 29 26 23 21
15 14 12 10 9 9 9 10 11 11 12 12 11 11 10 8 7 8 10 8 7 7 8 10 12 13 14 16 17 17 18 18 19 20 20 20 20 20 21 22 24 24 24 24 25 24 24 25 24 22 23 24 23 22 25 26 25 27 29 30 30 30 29 28 29 29 27 25 26 26 25 24 25 26 27 28 28 29 30 30 29 28 26 23 21
14 14 13 11 10 9 9 9 9 10 10 10 10 11 10 10 10 10 10 10 9 8 8 9 11 12 13 13 13 14 15 16 17 18 19 19 19 20 19 19 21 22 23 24 24 24 24 24 24 24 24 24 21 20 22 24 24 26 28 28 28 28 27 26 26 27 25 23 23 23 22 22 22 24 25 26 26 27 27 28 28 28 27 25 23
14 14 12 12 11 9 8 8 9 9 9 10 10 10 10 10 11 10 11 10 10 9 9 10 11 13 13 12 10 9 9 10 11 13 14 14 15 16 16 17 18 20 22 24 25 25 24 24 25 26 26 24 22 23 24 24 25 27 28 28 27 27 26 25 25 25 25 23 22 23 22 21 21 22 23 24 25 25 25 25 27 28 28 28 26
14 13 12 11 10 10 8 7 7 7 7 8 8 8 8 9 9 9 10 10 9 9 9 9 10 10 10 10 10 10 10 10 11 12 13 14 15 15 15 17 18 19 20 22 24 24 25 26 27 28 27 25 24 26 26 26 27 28 28 28 28 27 26 26 25 25 25 24 23 23 23 21 20 20 21 21 23 24 24 25 25 27 28 29 28
14 13 12 11 10 10 10 8 7 7 7 7 7 8 8 8 8 8 9 9 8 8 8 7 7 6 6 7 8 8 9 10 12 12 13 14 15 15 14 16 18 19 20 21 23 24 25 26 28 29 28 26 27 28 28 28 29 29 29 29 28 26 25 25 24 23 23 23 23 22 21 20 20 20 21 21 21 23 24 25 25 26 28 29 28
16 13 12 10 9 10 11 11 10 10 10 10 10 10 9 8 7 7 7 7 7 7 6 5 4 4 4 4 5 5 6 8 9 10 11 12 14 15 16 17 18 19 20 21 22 23 24 25 26 28 28 28 28 30 31 31 30 30 29 28 27 25 23 21 21 20 19 18 18 18 19 20 20 20 21 21 21 21 23 25 26 26 27 28 28
17 15 13 12 11 11 10 9 9 9 9 10 10 10 9 8 8 8 7 6 5 5 4 3 3 2 1 1 1 2 3 4 6 8 9 10 11 13 14 16 17 18 19 20 20 21 22 24 25 27 28 28 29 31 33 33 31 30 28 26 24 21 19 18 18 18 16 15 14 16 18 19 20 20 20 21 22 22 22 24 26 25 26 27 27
17 16 15 14 13 12 11 10 9 8 7 8 8 8 8 8 8 8 7 6 6 5 4 3 2 2 1 1 1 1 2 2 3 5 6 7 8 10 11 11 13 14 15 17 18 19 20 22 23 24 26 27 29 31 32 33 31 28 26 24 22 20 18 18 18 18 16 14 14 16 17 18 18 19 19 21 22 23 22 23 24 24 24 25 26
Wind_Direction
234 233 229 225 221 217 212 209 211 215 217 217 215 214 210 210 219 222 220 218 221 223 221 218 218 216 216 218 218 218 221 223 221 217 217 221 225 229 230 229 230 230 231 230 227 223 221 220 220 224 226 226 227 228 227 228 224 220 220 221 225 229 228 228 232 229 230 240 250 259 271 283 286 276 257 252 282 313 324 308 313 331 341 317 302
236 232 227 222 219 217 213 210 209 210 217 222 219 212 209 211 215 220 221 220 222 223 221 219 216 214 215 217 218 217 220 224 224 218 217 221 225 229 230 228 227 230 232 230 226 224 221 218 220 224 224 222 223 223 223 224 222 222 223 222 224 227 225 223 219 224 239 248 252 261 273 278 260 259 267 267 278 297 301 287 301 313 302 307 305
236 229 226 223 218 215 214 211 207 210 219 222 217 211 209 211 213 216 219 219 220 221 221 220 217 215 216 218 218 218 220 225 225 220 217 221 226 229 229 228 227 228 231 229 227 226 222 219 221 224 222 220 221 219 218 220 217 214 220 220 214 218 222 215 206 215 234 246 249 251 263 268 237 234 262 281 293 304 299 272 283 291 290 307 315
232 226 224 220 216 214 214 211 208 212 216 216 216 213 207 209 212 213 215 217 218 218 220 220 219 217 218 218 217 218 222 225 224 221 218 220 227 231 230 228 228 229 231 230 228 227 223 221 224 224 221 219 218 217 218 219 213 209 216 218 215 221 223 212 209 216 224 236 244 233 240 261 249 226 251 283 299 306 304 285 289 289 280 297 302
229 226 223 216 213 215 215 212 211 212 210 212 217 214 205 208 212 211 212 213 214 216 218 219 219 217 218 218 216 218 223 225 223 220 218 219 225 231 230 228 229 230 231 232 230 227 224 223 224 222 218 216 214 214 215 214 212 214 216 215 216 220 218 214 218 220 214 220 226 213 220 243 242 230 247 269 279 290 299 301 304 294 279 294 295
230 226 223 217 214 215 215 214 213 210 208 212 217 213 204 207 210 212 213 211 212 214 216 217 218 217 217 218 218 220 223 225 223 219 218 219 224 228 229 228 231 232 233 233 231 227 224 222 221 219 215 212 211 212 213 211 210 211 209 209 213 214 213 217 218 211 206 208 209 213 224 232 234 245 257 260 257 259 262 273 289 290 286 301 302
229 226 221 215 214 214 214 215 213 210 210 212 215 213 207 207 209 210 212 210 210 213 214 216 216 215 217 218 219 221 222 224 224 220 218 219 223 226 227 229 232 234 234 233 229 226 223 220 220 217 212 210 210 209 209 208 205 206 208 210 212 213 215 216 209 202 200 200 204 212 222 228 233 239 253 271 277 268 257 262 276 276 276 292 297
228 224 220 214 214 215 215 215 214 212 210 209 212 213 210 210 210 209 210 209 209 212 214 215 215 214 216 218 220 221 222 223 224 221 218 219 222 224 228 231 234 235 233 230 227 224 220 219 219 215 210 209 209 207 206 204 203 206 209 210 210 213 213 204 199 198 196 197 203 205 207 222 234 230 246 275 283 254 256 266 273 275 278 289 291
227 224 222 216 213 215 215 215 214 211 208 209 213 213 212 213 212 210 212 210 209 212 214 215 215 213 215 218 220 222 223 224 224 221 220 220 220 223 228 232 235 236 233 228 226 223 220 219 217 213 211 210 208 206 205 204 205 208 210 210 211 211 207 200 197 194 194 199 203 202 202 214 226 227 239 258 244 233 258 277 286 283 282 290 288
226 223 221 216 212 213 215 217 215 209 208 213 215 214 213 214 212 210 210 210 210 212 214 215 214 213 215 219 220 222 225 225 225 223 222 221 220 222 228 232 235 235 232 228 225 222 219 218 217 214 212 210 207 205 205 206 207 208 209 209 210 208 205 203 198 192 197 203 203 204 207 211 218 224 229 234 242 253 265 275 284 283 284 293 291
226 222 220 215 209 211 215 217 214 208 208 212 213 212 211 211 209 207 208 210 211 213 215 215 213 213 215 218 221 224 227 227 225 224 223 220 218 222 228 232 235 234 231 227 224 221 219 218 216 213 211 209 207 206 206 207 209 210 210 209 206 205 206 203 197 196 202 205 204 206 209 212 218 225 228 235 256 273 270 265 274 283 286 288 289
224 221 218 210 206 213 216 214 212 210 208 210 212 213 210 207 206 205 207 212 213 213 216 215 213 213 216 218 222 226 231 232 227 223 220 217 216 222 228 232 234 233 229 225 222 219 217 215 214 212 210 209 208 207 207 208 210 211 213 212 209 208 210 204 197 199 204 204 208 211 210 214 222 226 229 233 249 265 268 267 273 278 281 284 286
222 218 210 202 205 215 215 211 209 209 210 211 213 212 208 206 208 207 206 212 213 213 215 215 213 214 216 220 224 226 231 235 230 222 218 217 217 221 228 233 235 231 227 223 219 217 215 214 213 211 211 210 208 207 208 209 212 214 214 214 212 214 217 211 204 204 205 205 209 213 214 217 218 227 238 244 249 255 259 269 276 279 282 282 282
216 210 203 201 206 212 214 209 205 208 214 214 211 211 210 210 213 212 210 212 212 212 215 214 214 216 217 220 225 226 230 234 229 221 219 217 216 221 227 233 233 229 225 222 217 216 214 213 212 211 211 209 205 206 209 211 213 215 215 215 216 217 219 216 213 213 213 213 211 212 222 225 216 225 244 257 263 256 248 256 264 270 276 277 283
206 200 199 203 207 212 213 208 206 212 217 212 210 214 215 213 213 213 215 215 214 213 214 214 218 219 219 222 225 225 230 234 226 218 217 216 215 219 227 232 231 227 223 220 216 216 215 213 212 212 210 208 206 208 212 213 213 214 215 217 218 219 218 217 219 220 219 219 214 211 223 231 224 230 247 261 267 261 257 262 265 273 283 287 294
196 196 198 202 207 212 212 209 212 219 218 215 217 218 216 214 212 211 213 214 215 215 215 216 220 220 219 222 223 223 229 236 226 216 213 213 214 217 224 229 228 224 222 219 215 215 215 214 212 211 209 209 210 212 212 214 215 215 216 218 219 220 221 220 222 223 221 220 219 219 227 237 238 241 252 259 262 266 271 276 281 287 289 289 294
193 196 200 202 207 211 211 210 215 219 219 220 220 217 215 215 213 213 214 214 215 217 216 216 218 218 219 222 222 222 227 232 226 216 210 210 211 213 220 225 225 223 221 218 215 214 214 213 212 211 211 212 213 211 211 213 215 215 216 218 219 221 224 224 223 223 223 222 225 229 234 240 244 248 254 258 261 267 270 270 277 283 279 281 289
192 196 200 204 208 211 211 212 215 217 220 220 218 218 219 215 212 218 220 216 215 217 216 216 217 217 221 223 222 224 228 228 224 215 209 208 209 213 220 224 224 222 220 218 215 214 214 213 212 212 213 215 214 211 212 215 214 214 216 218 220 223 227 228 223 222 223 224 228 234 236 240 246 249 253 259 263 267 267 261 262 272 275 278 285
193 196 196 200 206 208 211 214 216 216 217 217 218 219 218 213 216 223 221 215 216 217 217 219 218 218 221 221 222 227 228 224 221 216 210 208 210 213 220 225 225 222 219 217 214 214 216 216 213 212 215 217 215 213 216 218 214 214 217 219 222 226 229 231 228 223 224 226 229 235 240 244 248 250 252 257 260 263 267 264 258 260 269 275 282
192 194 194 196 201 206 211 216 217 215 215 216 218 218 215 213 217 221 218 214 214 217 220 222 221 221 221 218 220 224 223 220 218 216 214 213 213 214 219 225 228 224 219 217 215 214 216 216 213 213 216 218 215 215 219 220 217 217 218 220 225 228 229 232 231 226 225 228 231 236 242 247 250 252 254 257 260 262 265 265 259 254 259 268 276
191 193 195 198 202 207 212 215 215 215 216 217 218 219 217 215 216 220 221 217 214 215 221 224 224 224 222 219 219 221 221 218 216 215 215 216 215 216 220 226 231 226 220 218 216 214 217 217 215 216 217 216 216 217 219 219 217 218 220 222 226 228 226 228 231 229 224 224 229 233 237 243 248 252 255 258 263 266 267 268 263 256 254 259 267
191 193 196 198 201 205 210 214 216 216 217 218 219 220 218 217 219 223 223 219 216 217 221 222 223 224 224 223 222 221 220 217 214 215 217 217 216 217 221 227 231 228 221 218 216 215 217 219 219 219 219 217 218 219 219 220 220 220 222 224 227 230 227 223 226 229 223 220 225 229 230 232 236 242 246 247 251 259 265 270 269 263 257 255 256
187 189 192 193 195 201 209 215 215 214 216 217 217 217 217 216 220 223 219 214 216 220 222 222 223 226 228 226 225 225 222 217 213 214 215 216 216 217 222 229 234 232 226 221 218 217 218 221 223 222 220 219 220 220 219 220 221 223 226 227 228 232 230 219 215 221 221 219 223 225 226 228 230 233 237 238 241 248 256 263 266 263 260 258 257
182 185 188 189 192 199 207 213 213 213 215 216 215 216 215 214 217 219 216 214 218 222 222 223 225 228 229 227 226 226 223 217 212 211 213 215 215 216 222 230 233 230 226 222 219 217 217 222 225 221 218 219 220 219 218 221 223 226 230 230 229 231 228 217 211 214 216 217 221 224 227 231 231 232 236 237 238 240 244 255 261 260 258 260 262
182 186 189 190 194 200 206 210 211 211 212 214 216 216 214 214 216 217 216 216 220 223 223 223 225 228 229 229 227 225 224 220 212 208 211 215 214 215 221 227 226 223 221 220 220 219 217 221 224 219 214 215 215 214 216 220 224 226 227 228 229 229 224 215 211 215 218 219 223 228 233 237 238 238 236 234 237 242 248 258 266 266 264 264 265
185 191 194 195 198 203 207 210 211 213 215 217 219 218 216 216 217 218 217 218 220 223 226 227 227 228 230 231 228 224 226 223 213 208 211 211 210 213 219 223 223 220 217 217 218 215 212 214 215 209 208 210 211 214 219 222 224 223 222 224 226 226 222 215 212 216 221 224 227 232 236 240 240 239 237 239 246 253 257 260 263 263 263 263 264
187 194 200 204 206 205 207 211 211 211 211 213 217 221 222 223 223 223 224 224 223 224 228 230 230 229 231 233 229 226 228 226 216 211 211 208 207 210 215 219 221 216 211 209 209 205 203 203 202 200 203 206 211 217 221 223 222 221 220 221 222 223 222 219 218 220 223 225 228 233 235 234 233 233 238 248 257 260 258 255 252 252 252 253 257
198 204 208 214 215 211 209 214 216 215 215 218 223 229 231 232 232 234 235 233 230 228 230 232 233 233 235 236 234 229 230 228 220 214 212 211 209 210 211 214 216 212 206 201 199 197 197 195 196 199 202 206 211 216 219 221 222 221 220 221 222 222 222 222 222 223 224 226 228 228 228 229 233 237 243 251 257 257 252 248 246 246 248 250 254
202 214 218 223 227 225 220 221 224 227 230 232 233 236 237 237 239 241 242 240 236 234 235 236 236 235 235 236 236 232 229 227 223 218 217 216 213 212 214 216 214 209 204 200 195 193 194 194 198 203 206 208 213 216 218 221 223 222 220 220 220 221 223 224 225 226 227 227 226 226 228 234 240 245 247 248 247 246 243 242 243 246 247 248 251
173 214 225 226 231 235 234 233 233 235 238 239 238 238 238 239 241 244 245 245 242 239 240 240 240 238 237 237 238 237 232 230 227 221 217 215 214 217 223 223 216 211 208 202 194 192 194 197 201 206 209 211 214 217 219 223 226 225 222 220 218 218 220 224 227 230 232 232 231 231 235 239 240 240 242 242 241 242 242 241 242 245 246 247 250
182 224 230 230 236 243 246 246 245 243 244 244 243 242 240 238 239 241 244 246 245 242 243 243 242 243 245 244 242 239 235 234 234 226 216 210 211 218 221 218 215 216 214 205 198 196 199 202 205 208 210 211 215 220 223 227 229 227 222 221 221 221 221 222 225 230 235 237 236 233 234 235 235 234 236 238 238 240 242 242 243 244 246 247 249
201 224 232 236 244 247 247 250 252 250 247 244 241 242 242 239 239 239 240 241 241 241 244 244 240 242 248 247 242 239 235 233 232 224 212 207 210 216 216 211 211 214 212 207 204 204 204 206 208 210 211 211 215 220 221 221 225 225 221 221 226 229 230 230 232 235 238 239 239 236 233 232 232 232 233 235 237 238 238 240 243 246 247 248 248
200 212 225 234 241 241 241 246 251 252 251 247 243 243 243 241 240 239 238 238 236 235 239 239 237 240 245 243 239 241 240 233 223 211 204 205 209 213 212 209 208 209 207 207 208 209 209 211 213 213 213 213 214 217 219 218 219 221 222 225 232 238 240 240 240 239 237 236 238 240 239 238 236 235 235 234 236 239 240 242 246 248 250 250 250
208 213 219 225 233 235 235 237 244 251 255 253 249 247 245 241 238 238 239 237 232 228 230 231 231 234 237 233 230 231 229 224 216 205 200 204 209 210 209 206 204 205 208 210 211 213 213 215 216 216 217 218 217 219 224 225 221 221 224 226 232 239 243 243 241 239 237 236 236 238 241 241 239 239 239 237 238 239 241 244 247 249 250 252 251
236 235 229 228 233 237 237 238 243 250 256 258 256 252 245 240 237 238 241 241 233 225 225 227 227 226 225 219 213 209 206 209 209 202 199 202 206 207 208 206 203 204 207 209 213 217 218 219 221 220 220 222 223 225 229 230 226 225 227 228 230 233 237 240 240 238 237 237 236 236 239 242 241 239 238 238 237 238 240 243 244 246 249 251 252
349 292 250 238 239 242 245 248 251 255 260 262 262 254 243 239 239 241 243 243 239 233 230 228 225 220 214 204 195 191 190 193 197 197 196 197 199 200 203 204 205 207 208 209 212 216 218 221 224 224 225 229 231 230 231 232 232 231 230 230 231 232 231 232 235 235 234 233 234 235 239 242 241 239 237 237 237 238 240 240 241 248 253 253 250
29 30 32 261 258 255 252 250 252 259 263 263 260 253 246 243 244 244 242 239 236 232 230 226 220 212 204 193 185 184 184 185 188 191 191 193 195 197 200 203 206 209 211 212 215 218 219 221 225 226 229 233 234 232 231 232 233 232 231 230 231 231 229 227 227 231 233 234 234 237 239 240 240 238 237 237 237 237 237 238 243 252 259 258 252
30 41 59 63 47 14 322 267 253 256 259 258 256 254 251 248 246 243 239 236 231 227 224 221 215 208 199 190 186 186 186 185 187 188 189 191 194 196 199 204 208 211 214 217 220 223 224 226 228 231 234 236 237 234 231 230 229 228 230 232 232 231 230 227 225 228 234 238 237 236 236 238 240 239 239 239 239 236 236 240 247 253 257 259 258
23 26 42 56 56 48 32 2 296 269 262 257 253 251 251 250 246 239 234 231 229 225 220 214 208 202 197 191 189 190 190 188 187 189 192 194 196 197 200 205 210 214 218 222 225 228 230 231 233 238 241 243 243 239 233 228 226 226 227 229 231 231 230 230 231 232 236 240 238 233 232 236 240 240 240 240 240 238 238 243 248 251 252 254 257
24 20 22 35 48 61 68 57 0 296 277 262 253 250 247 245 241 234 229 225 222 217 212 207 200 194 193 193 193 194 194 192 192 193 195 198 199 199 201 207 212 216 221 225 228 231 233 235 239 244 247 247 246 242 235 229 228 228 227 227 229 231 233 235 237 237 238 239 237 234 234 237 239 239 240 240 239 239 240 243 247 251 253 254 252
27 30 32 39 51 64 77 83 79 35 302 269 251 246 242 238 233 227 220 219 216 209 203 199 192 184 183 189 193 197 200 202 203 202 203 205 205 203 205 211 215 219 224 227 229 232 234 237 241 245 248 247 245 242 238 233 230 230 229 229 230 233 235 237 238 237 237 239 239 238 238 239 241 242 242 241 240 239 239 242 247 250 254 254 250
30 37 45 54 61 65 76 86 92 98 94 78 69 109 214 222 224 216 209 214 213 202 188 181 177 173 173 180 189 200 208 211 213 214 216 217 216 213 214 218 221 224 226 229 231 233 235 237 241 245 248 248 244 241 239 235 229 227 229 231 233 235 236 238 239 238 237 239 241 241 241 242 244 246 245 243 242 241 241 243 247 249 249 249 247
33 39 45 53 63 71 83 92 98 105 106 96 84 80 83 93 128 148 149 170 190 184 171 166 166 166 171 178 186 197 206 209 211 216 220 222 223 223 223 225 228 231 232 233 234 235 237 240 244 246 247 246 242 241 241 239 234 231 231 232 235 237 236 236 240 241 240 241 244 246 245 244 245 246 246 244 243 243 243 245 247 247 244 240 238
31 39 42 46 55 70 88 102 108 110 111 111 111 110 107 109 121 129 130 140 157 168 173 175 173 175 184 191 195 202 210 214 216 219 220 220 221 223 224 227 231 234 235 235 235 236 238 241 244 245 246 246 243 241 242 241 237 234 234 234 236 239 237 236 239 244 245 244 246 249 250 247 245 245 246 245 243 243 243 245 246 245 241 235 232
31 39 45 47 51 63 81 99 114 120 120 120 125 131 138 147 153 153 155 164 174 178 184 188 188 191 200 205 206 211 219 223 225 225 225 224 223 223 223 225 228 229 228 228 230 231 234 239 243 242 243 246 244 240 239 237 233 232 234 235 237 240 241 239 241 246 250 249 248 250 252 250 245 243 242 243 244 244 243 243 245 245 241 234 230
34 38 44 49 53 61 73 87 100 111 120 128 135 140 146 150 153 157 161 165 169 173 178 184 189 193 197 197 196 202 212 220 223 224 224 223 224 225 225 227 229 229 228 227 229 229 229 234 240 242 241 242 242 240 238 235 231 232 234 235 236 240 243 245 245 248 251 251 250 250 252 251 247 244 242 240 242 245 245 243 242 244 243 239 233
44 45 43 46 54 61 68 80 92 98 108 123 134 140 145 148 153 159 161 162 164 168 168 171 180 189 195 198 200 205 211 215 217 219 220 221 224 227 229 231 233 234 233 232 232 231 228 229 234 238 238 235 234 237 237 235 233 233 234 235 237 242 248 251 252 252 253 253 251 250 251 252 250 249 247 242 240 243 247 246 243 242 243 241 236
39 43 41 40 48 59 65 75 90 97 103 116 126 130 132 134 136 141 147 152 155 155 154 159 171 182 190 197 205 212 219 223 225 225 225 226 227 229 233 236 238 238 239 239 238 237 235 234 236 238 238 233 230 232 234 234 234 233 233 235 241 249 254 255 254 253 253 254 253 251 252 253 251 250 252 252 247 244 245 248 248 245 244 243 239
32 39 45 46 49 55 60 66 74 83 91 98 105 108 111 112 112 116 124 133 140 139 135 136 148 162 177 192 206 219 232 241 246 247 246 246 245 244 244 244 244 243 244 246 246 246 246 245 244 243 242 238 233 232 234 235 236 237 238 241 247 252 253 252 251 252 254 254 255 255 255 255 253 251 254 258 259 253 247 246 248 247 246 245 242
38 43 51 54 52 52 53 56 67 82 94 99 101 104 109 115 116 115 115 116 122 124 117 108 107 114 127 156 194 233 252 262 268 268 267 268 268 265 261 258 254 250 249 251 253 254 254 254 252 249 247 244 240 237 237 238 239 241 245 248 251 250 247 245 247 249 248 247 250 255 257 256 256 256 256 258 260 259 251 247 247 247 245 245 245
43 46 50 51 52 51 50 50 56 68 84 97 105 111 116 117 116 115 115 114 113 109 95 74 56 48 48 45 16 329 303 290 290 290 287 283 278 275 272 270 266 262 259 259 259 259 259 259 258 255 252 250 246 244 242 242 243 244 245 245 243 241 240 242 243 242 240 241 248 253 255 256 258 259 258 257 258 259 255 249 247 246 244 244 245